Location: Unspecified
(48.7670°N, 0.0000°E)
Time: 13:50:08
(UTC+00:00)

Altair - Pass Details

Date: 26 June 2019
Orbit: 1501 x 1683 km, 47.2° (Epoch: 22 July)

Event Time Altitude Azimuth Distance (km) Brightness Sun altitude
Rises 18:48:45 0° 229° (SW) 4,670 10.4 10.2°
Reaches altitude 10° 18:51:48 10° 225° (SW) 3,709 9.8 9.8°
Maximum altitude 19:00:53 56° 151° (SSE) 1,833 7.8 8.4°
Drops below altitude 10° 19:10:19 10° 77° (ENE) 3,858 9.2 7.0°
Sets 19:13:34 0° 73° (ENE) 4,869 9.7 6.6°
